Regional Weather Roundup
Issued by NWS

Home | Current Version | Previous Version | Text Only | Print | Product List | Glossary On
Versions: 1 2 3 4 5 6 7 8 9 10 11 12 13 14 15 16 17 18 19 20 21 22 23 24 25 26 27 28 29 30 31 32 33 34 35 36 37 38 39 40 41 42 43 44 45 46 47 48 49 50
000
ASUS43 KLSX 230107
RWRMO

WEATHER SUMMARY FOR MISSOURI
NATIONAL WEATHER SERVICE SPRINGFIELD MO
800 PM CDT WED MAY 22 2019

NOTE: "FAIR" INDICATES FEW OR NO CLOUDS BELOW 12,000 FEET WITH NO
       SIGNIFICANT WEATHER AND/OR OBSTRUCTIONS TO VISIBILITY.
       CURRENT SKY AND/OR WEATHER CONDITIONS ARE NOT AVAILABLE FOR
       CHILLICOTHE AND FARMINGTON.

MOZ001>031-035>038-043-044-053-054-230200-
...NORTHERN AND WESTERN MISSOURI...

CITY           SKY/WX    TMP DP  RH WIND       PRES   REMARKS
KANSAS CTY INT MOCLDY    68  58  70 CALM      29.82R
KANSAS C DTWN  CLOUDY    68  64  87 NW5       29.80R
LEE`S SUMMIT   LGT RAIN  65  62  90 W5        29.81S
ST JOSEPH      PTCLDY    71  54  54 W6        29.81R
CHILLICOTHE      N/A     67  63  87 CALM      29.80F
KIRKSVILLE     LGT RAIN  69  65  86 SW6       29.82R FOG

$$
MOZ066>068-077>081-088>096-101>105-230200-
...SOUTHWEST MISSOURI...

CITY           SKY/WX    TMP DP  RH WIND       PRES   REMARKS
SPRINGFIELD    CLOUDY    79  68  69 S10       29.84R
JOPLIN         TSTM      75  72  90 S3        29.80R FOG
BRANSON        CLOUDY    79  70  73 S14       29.88R

$$
MOZ032>034-039>042-045>050-055>058-069>072-230200-
...CENTRAL MISSOURI...

CITY           SKY/WX    TMP DP  RH WIND       PRES   REMARKS
COLUMBIA       PTCLDY    80  66  62 S13       29.79F
ROLLA          PTCLDY    78  66  66 S14       29.87R
SEDALIA        CLOUDY    73  69  87 E3        29.78F
WHITEMAN AFB   TSTM      73  73 100 NW6       29.72
WARRENSBURG    TSTM      70  64  83 NW12      29.77F
OSAGE BEACH    CLEAR     79  69  71 S10       29.82F

$$
MOZ051-052-059>065-230200-
...EAST CENTRAL MISSOURI...

CITY           SKY/WX    TMP DP  RH WIND       PRES   REMARKS
ST LOUIS INTL  MOCLDY    81  66  60 S13G23    29.86S
SPIRIT OF STL  PTCLDY    81  68  64 S7        29.85R
ST CHARLES     CLEAR     79  68  69 S15       29.84S

$$
MOZ072>076-082>087-097>100-106>115-230200-
...SOUTH CENTRAL AND SOUTHEAST MISSOURI...

CITY           SKY/WX    TMP DP  RH WIND       PRES   REMARKS
CAPE GIRARDEAU FAIR      80  72  76 SE7       29.92S
FARMINGTON     MOCLDY    77  71  82 S9        29.93R
POPLAR BLUFF   FAIR      82  74  76 S8        29.91R
WEST PLAINS    CLOUDY    80  71  74 S8        29.92R

$$



USA.gov is the U.S. government's official web portal to all federal, state and local government web resources and services.